Weather History for PHNL - July, 2014

Change the Weather History Date:

Sunday, July 27, 2014

  Actual Average Record
Temperature  
Mean Temperature 83 °F 82 °F  
Max Temperature 89 °F 88 °F 91 °F (1984)
Min Temperature 77 °F 75 °F 70 °F (1955)
Degree Days  
Heating Degree Days 0 0  
Month to date heating degree days 0 0  
Since 1 June heating degree days 0 0  
Since 1 July heating degree days 0 0  
Cooling Degree Days 18 17  
Month to date cooling degree days 466 433  
Year to date cooling degree days 2538 2391  
Since 1 June cooling degree days 929 889  
Growing Degree Days 32 (Base 50)    
Moisture  
Dew Point 70 °F    
Average Humidity 69    
Maximum Humidity 88    
Minimum Humidity 50    
Precipitation  
Precipitation T in 0.02 in 0.74 in (1963)
Month to date precipitation 1.12 0.43  
Year to date precipitation 11.67 8.26  
Snow  
Snow 0.00 in - - ()
Month to date snowfall 0.0  
Since 1 June snowfall 0.0  
Since 1 July snowfall 0.0  
Snow Depth 0.00 in    
Sea Level Pressure  
Sea Level Pressure 29.98 in    
Wind  
Wind Speed 8 mph (ENE)    
Max Wind Speed 18 mph    
Max Gust Speed 24 mph    
Visibility 10 miles    
Events      
T = Trace of Precipitation, MM = Missing Value Source: NWS Daily Summary

Daily Weather History Graph

Daily Weather History Graph

Search for Another Location

Airport or City:

Trip Planner

Search our weather history database for the weather conditions in past years. The results will help you decide how hot, cold, wet, or windy it might be!

Date:

Astronomy

Jul. 27, 2014 Rise Set
Actual Time 6:03 AM HST 7:12 PM HST
Civil Twilight 5:39 AM HST 7:36 PM HST
Nautical Twilight 5:10 AM HST 8:05 PM HST
Astronomical Twilight 4:41 AM HST 8:34 PM HST
Moon 6:46 AM HST (7/27) 7:45 PM HST (7/27)
Length of Visible Light 13h 57m
Length of Day
13h 09m
New Moon, 1% of the Moon is Illuminated
Jul 27
New Moon
Aug 3
First Quarter
Aug 10
Full
Aug 17
Last Quarter
Aug 25
New

Hourly Weather History & Observations

Time (HST) Temp. Heat Index Dew Point Humidity Pressure Visibility Wind Dir Wind Speed Gust Speed Precip Events Conditions
12:53 AM 77.0 °F - 73.9 °F 90% 29.96 in 10.0 mi North 4.6 mph - N/A   Mostly Cloudy
1:53 AM 77.0 °F - 73.9 °F 90% 29.95 in 10.0 mi NNW 4.6 mph - 0.00 in   Mostly Cloudy
2:53 AM 78.1 °F - 73.0 °F 84% 29.93 in 10.0 mi Calm Calm - N/A   Scattered Clouds
3:53 AM 78.1 °F - 72.0 °F 81% 29.92 in 10.0 mi Calm Calm - N/A   Scattered Clouds
4:53 AM 78.1 °F - 71.1 °F 79% 29.92 in 10.0 mi NNE 6.9 mph - N/A   Scattered Clouds
5:53 AM 78.1 °F - 71.1 °F 79% 29.94 in 10.0 mi ENE 8.1 mph - N/A   Scattered Clouds
6:53 AM 80.1 °F 83.2 °F 70.0 °F 71% 29.97 in 10.0 mi NNE 6.9 mph - N/A   Mostly Cloudy
7:53 AM 81.0 °F 83.8 °F 68.0 °F 65% 29.99 in 10.0 mi ENE 9.2 mph - N/A   Mostly Cloudy
8:53 AM 82.9 °F 85.8 °F 68.0 °F 60% 30.01 in 10.0 mi NE 9.2 mph - N/A   Mostly Cloudy
9:53 AM 84.9 °F 88.2 °F 68.0 °F 57% 30.01 in 10.0 mi East 11.5 mph - N/A   Scattered Clouds
10:53 AM 84.9 °F 87.6 °F 66.9 °F 55% 30.00 in 10.0 mi ENE 12.7 mph 18.4 mph N/A   Scattered Clouds
11:53 AM 87.1 °F 89.2 °F 66.0 °F 49% 29.99 in 10.0 mi East 11.5 mph 19.6 mph N/A   Scattered Clouds
12:53 PM 88.0 °F 90.7 °F 66.9 °F 49% 29.98 in 10.0 mi ENE 13.8 mph - N/A   Scattered Clouds
1:53 PM 84.9 °F 90.1 °F 71.1 °F 63% 29.97 in 10.0 mi ESE 15.0 mph - N/A   Mostly Cloudy
2:53 PM 86.0 °F 90.7 °F 70.0 °F 59% 29.96 in 10.0 mi SE 13.8 mph - N/A   Scattered Clouds
3:53 PM 84.9 °F 90.1 °F 71.1 °F 63% 29.95 in 10.0 mi SSE 11.5 mph - N/A   Scattered Clouds
4:53 PM 86.0 °F 90.1 °F 69.1 °F 57% 29.96 in 10.0 mi ENE 8.1 mph - N/A   Mostly Cloudy
5:53 PM 86.0 °F 88.8 °F 66.9 °F 53% 29.97 in 10.0 mi ENE 15.0 mph 20.7 mph N/A   Mostly Cloudy
6:53 PM 82.9 °F 85.8 °F 68.0 °F 60% 29.98 in 10.0 mi ENE 18.4 mph - N/A   Scattered Clouds
7:53 PM 81.0 °F 83.8 °F 68.0 °F 65% 30.00 in 10.0 mi NE 12.7 mph - N/A   Scattered Clouds
8:53 PM 81.0 °F 83.8 °F 68.0 °F 65% 30.02 in 10.0 mi ENE 12.7 mph - N/A   Scattered Clouds
9:53 PM 80.1 °F 82.7 °F 68.0 °F 67% 30.04 in 10.0 mi ENE 12.7 mph - N/A   Scattered Clouds
10:53 PM 80.1 °F 82.7 °F 68.0 °F 67% 30.04 in 10.0 mi ENE 10.4 mph - N/A   Partly Cloudy
11:53 PM 80.1 °F 82.7 °F 68.0 °F 67% 30.04 in 10.0 mi ENE 12.7 mph - N/A   Scattered Clouds